TimeAKST,TemperatureF,Dew PointF,Humidity,Sea Level PressureIn,VisibilityMPH,Wind Direction,Wind SpeedMPH,Gust SpeedMPH,PrecipitationIn,Events,Conditions,WindDirDegrees,DateUTC
12:53 AM,-25.1,-29.0,82,30.23,10.0,SSW,5.8,-,N/A,,Clear,210,2013-02-17 09:53:00
1:53 AM,-27.9,-32.1,81,30.21,10.0,South,4.6,-,N/A,,Clear,190,2013-02-17 10:53:00
3:53 AM,-29.0,-33.0,81,30.24,10.0,SW,4.6,-,N/A,,Scattered Clouds,220,2013-02-17 12:53:00
4:53 AM,-29.0,-33.0,81,30.23,10.0,Calm,Calm,-,0.01,,Scattered Clouds,0,2013-02-17 13:53:00
5:53 AM,-29.0,-32.1,85,30.24,10.0,Calm,Calm,-,N/A,,Scattered Clouds,0,2013-02-17 14:53:00
6:53 AM,-29.9,-9999,N/A,30.24,10.0,SSW,3.5,-,0.01,,Scattered Clouds,210,2013-02-17 15:53:00
7:53 AM,-29.0,-32.1,85,30.25,10.0,South,3.5,-,0.03,,Partly Cloudy,170,2013-02-17 16:53:00
8:53 AM,-26.0,-29.9,81,30.25,10.0,SW,4.6,-,0.04,,Partly Cloudy,230,2013-02-17 17:53:00
9:53 AM,-20.9,-27.0,73,30.26,8.0,Calm,Calm,-,0.01,,Clear,0,2013-02-17 18:53:00
10:53 AM,-16.1,-22.0,74,30.29,10.0,NW,8.1,-,0.03,,Clear,310,2013-02-17 19:53:00
11:53 AM,-16.1,-18.9,87,30.30,10.0,Calm,Calm,-,0.02,,Clear,0,2013-02-17 20:53:00
12:53 PM,-11.9,-20.0,67,30.32,10.0,NNW,5.8,-,0.01,,Clear,330,2013-02-17 21:53:00
1:53 PM,-14.1,-20.0,75,30.33,10.0,Calm,Calm,-,0.01,,Clear,0,2013-02-17 22:53:00
2:53 PM,-11.0,-18.0,71,30.32,10.0,NW,8.1,-,0.00,,Clear,310,2013-02-17 23:53:00
3:53 PM,-16.1,-22.0,74,30.35,10.0,NNW,3.5,-,0.02,,Clear,340,2013-02-18 00:53:00
4:53 PM,-7.1,-16.1,65,30.36,10.0,NNW,13.8,-,0.01,,Clear,330,2013-02-18 01:53:00
5:53 PM,-9.9,-18.0,68,30.36,10.0,NW,5.8,-,N/A,,Clear,310,2013-02-18 02:53:00
6:53 PM,-8.0,-17.0,65,30.39,10.0,North,17.3,-,0.01,,Clear,350,2013-02-18 03:53:00
8:53 PM,-11.9,-20.0,67,30.42,10.0,North,4.6,-,0.01,,Clear,360,2013-02-18 05:53:00
9:53 PM,-15.0,-20.9,75,30.42,10.0,Calm,Calm,-,N/A,,Clear,0,2013-02-18 06:53:00
10:53 PM,-24.0,-27.0,86,30.43,10.0,Calm,Calm,-,0.01,,Clear,0,2013-02-18 07:53:00
11:53 PM,-17.0,-23.1,74,30.43,10.0,NE,3.5,-,0.01,,Clear,40,2013-02-18 08:53:00